OpenBCM V1.08-5-g2f4a (Linux)

Packet Radio Mailbox

IZ3LSV

[San Dona' di P. JN]

 Login: GUEST





  
LU9DCE > KEPS     27.12.17 20:06l 252 Lines 12460 Bytes #999 (0) @ LUNET
BID : 28156_LU9DCE
Read: GUEST
Subj: SAT TLE OF 27
Path: IZ3LSV<IQ2LB<IK1NHL<CX2SA<XE1FH<LU9DCE
Sent: 171227/1601Z @:LU9DCE.TOR.BA.ARG.SOAM #:28156 [TORTUGUITAS] FBB7.0.8-beta
From: LU9DCE@LU9DCE.TOR.BA.ARG.SOAM
To  : KEPS@LUNET


            __    _  _  ___  ____   ___  ____    ____  ____  ____
           (  )  / )( \/ _ \(    \ / __)(  __)  (  _ \(  _ \/ ___)
           / (_/\) \/ (\__  )) D (( (__  ) _)    ) _ ( ) _ (\___ \
           \____/\____/(___/(____/ \___)(____)  (____/(____/(____/
               ESTACION DE PACKET RADIO - BUENOS AIRES (GF05OM)
                   BOLETINES INFORMATIVOS PROGRAMADOS (BIP)
                    LU9DCE@GMX.COM - RF 147070 @ 1200 BAUD
                        https://lu9dce.wordpress.com/

+------------------------------------------------------------------------------+
OSCAR 7
1 07530U 74089B   17360.87923242 -.00000022  00000-0  13849-3 0  9990
2 07530 101.6615 325.9675 0011977 310.2759 104.2128 12.53630412973000
OSCAR 11 (UoSAT 2)
1 14781U 84021B   17361.55192413  .00000121  00000-0  21099-4 0  9993
2 14781  97.6728  39.8693 0007088 289.2397  70.8050 14.82968935819006
OSCAR 19 (LUSAT)
1 20442U 90005G   17360.87462285 +.00000006 +00000-0 +18203-4 0  9999
2 20442 098.5944 295.5795 0010844 302.2909 057.7224 14.32882466459152
KITSAT B
1 22825U 93061C   17360.81837119 +.00000019 +00000-0 +25272-4 0  9995
2 22825 098.8400 329.0301 0009231 125.1212 235.0836 14.30017564264669
POSAT 1
1 22826U 93061D   17361.50462008  .00000021  00000-0  25709-4 0  9992
2 22826  98.8342 329.7858 0009872 114.4235 245.7978 14.30348191265216
RADIO ROSTO
1 23439U 94085A   17360.91952240 -.00000045 +00000-0 -67675-4 0  9992
2 23439 064.8166 267.4433 0162788 212.5960 232.4319 11.27566293947141
JAS 2
1 24278U 96046B   17360.86421349 -.00000018 +00000-0 +17591-4 0  9999
2 24278 098.5325 218.2024 0350022 197.7936 161.0689 13.53080508054687
TECHSAT 1B
1 25397U 98043D   17360.91043547 +.00000006 +00000-0 +21633-4 0  9995
2 25397 098.6322 299.3680 0001929 127.0524 233.0831 14.23636803010992
ISS (ZARYA)
1 25544U 98067A   17361.59805881  .00001877  00000-0  35471-4 0  9999
2 25544  51.6416 154.1325 0002530 299.1009 152.2933 15.54222083 91834
PCSAT
1 26931U 01043C   17360.94066511 -.00000009 +00000-0 +28234-4 0  9991
2 26931 067.0520 313.8536 0005224 272.4165 087.6338 14.30488638847843
SAUDISAT 1C
1 27607U 02058C   17361.18566437  .00000059  00000-0  29068-4 0  9998
2 27607  64.5554 255.7554 0044183  12.4575 347.7608 14.75406772807586
CUTE-1
1 27844U 03031E   17361.49533118  .00000076  00000-0  54153-4 0  9999
2 27844  98.6886   7.6771 0010395 143.7521 216.4363 14.22084960751791
CUBESAT XI 4
1 27848U 03031J   17361.54784973  .00000063  00000-0  48334-4 0  9996
2 27848  98.6976   8.0659 0010137 152.8461 207.3248 14.21693077751675
MOZHAYETS 4
1 27939U 03042A   17361.52993354  .00000135  00000-0  32830-4 0  9996
2 27939  97.9646 140.3778 0012365 338.3870  95.5059 14.66643522761659
CUBESAT XI 5
1 28895U 05043F   17360.98554907  .00000195  00000-0  46359-4 0  9994
2 28895  97.8846 154.6702 0015607 252.2874 107.6625 14.63490964648685
CUTE-1.7+APD II
1 32785U 08021C   17361.51288815  .00000337  00000-0  42280-4 0  9995
2 32785  97.5547  16.8325 0011740 244.9583 115.0416 14.88035858523645
DELFI C3
1 32789U 08021G   17361.20712841  .00001421  00000-0  10254-3 0  9996
2 32789  97.5365  55.2018 0013288 158.1755 202.0041 15.05627886525909
SEEDS
1 32791U 08021J   17360.60381778 +.00000544 +00000-0 +61226-4 0  9994
2 32791 097.5482 020.8978 0012303 228.9600 131.0556 14.90429601523725
YUBELEINY
1 32953U 08025A   17361.44643197  .00000020  00000-0  74785-4 0  9990
2 32953  82.5034 119.4912 0018980 221.7320 138.2312 12.43080750435435
PRISM (HITOMI)
1 33493U 09002B   17361.41896429  .00000124  00000-0  16750-4 0  9994
2 33493  98.1457 251.7637 0015135 158.5299 201.6530 14.96014448484669
KKS-1 (KISEKI)
1 33499U 09002H   17361.17944731  .00000150  00000-0  30290-4 0  9997
2 33499  98.3450 172.4413 0010312 117.0798 243.1463 14.75277951479811
SWISSCUBE
1 35932U 09051B   17360.96131262  .00000168  00000-0  49021-4 0  9999
2 35932  98.5203 143.2423 0007974  27.0904 333.0707 14.56104039438370
BEESAT
1 35933U 09051C   17361.13858363  .00000144  00000-0  43450-4 0  9992
2 35933  98.5243 144.8593 0006450  41.0975 319.0707 14.56213654438505
ITUPSAT 1
1 35935U 09051E   17361.44028544  .00000128  00000-0  40578-4 0  9998
2 35935  98.5356 145.4222 0008611  32.3966 327.7757 14.55397847438341
XIWANG-1 (HOPE-1)
1 36122U 09072B   17361.54518131 -.00000010  00000-0  85695-4 0  9997
2 36122 100.0863  19.1439 0007884 145.1684 214.9947 13.16342730386066
TISAT 1
1 36799U 10035E   17361.41733297  .00000518  00000-0  58833-4 0  9992
2 36799  98.0835 128.3697 0013404  56.6528 303.5970 14.90651706404564
JUGNU
1 37839U 11058B   17361.20374874  .00000312  00000-0  24456-4 0  9999
2 37839  19.9629   0.1139 0019114 150.4374 294.2637 14.12605207321021
SRMSAT
1 37841U 11058D   17361.48259600  .00000276  00000-0  64858-5 0  9991
2 37841  19.9731  44.0834 0012052  45.1628  95.1211 14.10594979320603
M-CUBED/EXP-1 PRIME
1 37855U 11061F   17360.85976797 +.00001874 +00000-0 +10411-3 0  9992
2 37855 101.7200 330.2400 0177924 232.0400 126.4621 15.03942302335275
HORYU 2
1 38340U 12025D   17360.96381374 +.00000293 +00000-0 +51150-4 0  9996
2 38340 098.3753 011.6903 0012401 043.6812 316.5375 14.75473433291303
STRAND 1
1 39090U 13009E   17360.60858270 +.00000058 +00000-0 +35710-4 0  9990
2 39090 098.5345 204.0695 0010303 089.5912 270.6454 14.35003568253052
BEESAT 3
1 39134U 13015E   17361.42156107  .00002137  00000-0  11120-3 0  9995
2 39134  64.8657 322.3272 0029643 233.3066 126.5336 15.18667050258815
SOMP
1 39135U 13015F   17360.70537240 +.00001730 +00000-0 +98133-4 0  9995
2 39135 064.8693 335.8019 0030822 256.5672 103.2017 15.16269642258108
BEESAT 2
1 39136U 13015G   17360.94541183 +.00001645 +00000-0 +95076-4 0  9991
2 39136 064.8701 337.3594 0032372 255.5303 104.2229 15.15758257258094
CUBEBUG 1
1 39153U 13018D   17361.21875580  .00000290  00000-0  45006-4 0  9998
2 39153  97.9832  92.4823 0017958 140.2918 219.9613 14.80314561252153
ZACUBE
1 39417U 13066B   17361.55624411  .00000328  00000-0  47805-4 0  9997
2 39417  97.6073  34.1818 0059071 358.7043   1.4007 14.80849492221393
TRITON 1
1 39427U 13066M   17361.08189202  .00000291  00000-0  54132-4 0  9990
2 39427  97.6363   3.4928 0115613  90.8061 270.6393 14.67587317219335
GOMX 1
1 39430U 13066Q   17361.51249793  .00000241  00000-0  52426-4 0  9993
2 39430  97.6793 345.9561 0152304 152.0681 208.8802 14.58995558218124
HUMSAT D
1 39433U 13066T   17360.72311666  .00000659  00000-0  70560-4 0  9999
2 39433  97.6293  57.9229 0029706 297.8460  61.9749 14.91699829222712
50 SAT
1 39436U 13066W   17361.38342275  .00079920  00000-0  12465-2 0  9990
2 39436  97.7118 118.7737 0005795 103.3512 256.8387 15.53554595226450
CUBEBUG 2
1 39440U 13066AA  17360.83797335  .00000330  00000-0  52974-4 0  9995
2 39440  97.6125  21.2253 0081412  36.0770 324.5895 14.75586457220503
FUNCUBE 1
1 39444U 13066AE  17361.10090330  .00000369  00000-0  52122-4 0  9998
2 39444  97.6088  35.0540 0058147 356.2209   3.8557 14.81609793220171
UWE-3
1 39446U 13066AG  17361.02040177  .00000318  00000-0  49074-4 0  9991
2 39446  97.6087  27.1922 0070698  18.3378 342.0358 14.78119745219686
SPROUT
1 39770U 14029E   17361.49989179  .00000564  00000-0  69675-4 0  9998
2 39770  97.8759  99.0682 0010388  58.5642 301.6610 14.86601497194857
UNISAT 6
1 40012U 14033C   17361.17134762  .00000268  00000-0  47512-4 0  9996
2 40012  97.8309 238.5550 0059374  34.2841 326.2178 14.73742034189364
DUCHIFAT 1
1 40021U 14033M   17361.50345633  .00000715  00000-0  79644-4 0  9992
2 40021  97.9171 274.9145 0013812  29.6175 330.5822 14.90151595191385
QB50P1
1 40025U 14033R   17360.80643700  .00000385  00000-0  47323-4 0  9996
2 40025  97.9088 271.5240 0013418  37.1454 323.0688 14.88603629191149
CHUBUSAT 1
1 40300U 14070C   17361.49289531  .00000842  00000-0  40537-4 0  9995
2 40300  97.3812  77.7442 0021119 140.2892 277.1864 15.21312746174177
NUDT-PHONESAT
1 40900U 15049B   17361.19752759  .00003080  00000-0  14354-3 0  9996
2 40900  97.4428   6.5225 0012028 271.5915  88.3943 15.20583227125774
ZDPS 2A
1 40901U 15049C   17361.50349256  .00001319  00000-0  70535-4 0  9993
2 40901  97.4585   5.5816 0012207 275.4146  84.5695 15.16765312125631
ZDPS 2B
1 40902U 15049D   17361.19087243  .00001191  00000-0  64338-4 0  9996
2 40902  97.4469   3.5902 0012264 273.3683  86.6148 15.16576521125574
XW-2A
1 40903U 15049E   17361.52402735  .00002955  00000-0  76506-4 0  9990
2 40903  97.4046  29.5469 0012803 292.2584  67.7304 15.39821750127388
KAITUO 1A
1 40904U 15049F   17361.48732794  .00000952  00000-0  54681-4 0  9992
2 40904  97.4571   3.3337 0013165 275.2895 239.5752 15.14828208125500
OBJECT G
1 40905U 15049G   17361.49612208  .00000638  00000-0  38857-4 0  9999
2 40905  97.4548   1.7122 0014249 264.4411  95.5196 15.13812681125449
XW-2C
1 40906U 15049H   17361.53407684  .00001006  00000-0  57386-4 0  9993
2 40906  97.4574   3.2351 0013512 264.5186  95.4505 15.14947829125506
XW-2D
1 40907U 15049J   17361.50260053  .00001059  00000-0  60020-4 0  9995
2 40907  97.4545   2.9255 0012873 262.3423  97.6347 15.15080858125502
LILACSAT 2
1 40908U 15049K   17361.17597563  .00000530  00000-0  33333-4 0  9998
2 40908  97.4653   2.1776 0014481 263.6504  96.3078 15.13365688125359
XW-2F
1 40910U 15049M   17361.51343196  .00001586  00000-0  85530-4 0  9998
2 40910  97.4557   3.9436 0013652 258.6396 101.3303 15.16154993125434
XW-2B
1 40911U 15049N   17361.51414378  .00001050  00000-0  59619-4 0  9995
2 40911  97.4585   3.4051 0012782 262.8159  97.1620 15.15031639125402
KAITUO 1B
1 40912U 15049P   17361.16369630  .00001355  00000-0  69226-4 0  9990
2 40912  97.4508   5.9810 0013689 249.4612 173.3555 15.18323651125562
